EW6519 Weather Reports


Display with metric or nautical units.
time (UTC)temp
F
wind
direction
speed
MPH
gust
MPH
rain 1hr
in
rain 24hr
in
rain mn
in
humidity
%
barometer
mb
20260505054502 64 185 1.0 8.0 0.00 0.00 0.00 63 1004.8
20260505053113 65 195 2.0 13.0 0.00 0.00 0.00 63 1004.7
20260505051556 65 128 2.0 8.0 0.00 0.00 0.00 62 1004.8
20260505041609 67 200 0.0 6.0 0.00 0.00 0.00 61 1005.4
20260505040047 66 276 1.0 6.0 0.00 0.00 0.00 62 1005.5
20260505034547 66 256 0.0 6.0 0.00 0.00 0.00 62 1005.4
20260505033045 66 257 2.0 9.0 0.00 0.00 0.00 62 1005.4
20260505031546 67 250 1.0 7.0 0.00 0.00 0.00 62 1005.4
20260505030044 67 149 0.0 6.0 0.00 0.00 0.00 63 1005.2
20260505024547 67 169 0.0 6.0 0.00 0.00 0.00 62 1005.1
20260505023047 67 206 0.0 3.0 0.00 0.00 0.00 62 1005.0
20260505021545 67 219 0.0 0.0 0.00 0.00 0.00 62 1004.8
20260505020041 68 234 0.0 0.0 0.00 0.00 0.00 60 1004.6
20260505014544 68 160 0.0 0.0 0.00 0.00 0.00 60 1004.3
20260505013040 69 207 0.0 3.0 0.00 0.00 0.00 59 1004.3
20260505011540 69 227 0.0 9.0 0.00 0.00 0.00 59 1004.2
20260505010043 70 167 0.0 9.0 0.00 0.00 0.00 58 1004.2
20260505004538 70 167 0.0 6.0 0.00 0.00 0.00 57 1004.2
20260505003037 71 214 0.0 5.0 0.00 0.00 0.00 55 1004.2
20260505001547 72 196 1.0 11.0 0.00 0.00 0.00 54 1004.4
20260505000040 73 191 1.0 7.0 0.00 0.00 0.00 52 1004.5
20260504234534 74 186 1.0 12.0 0.00 0.00 0.00 50 1004.5
20260504233031 74 245 0.0 10.0 0.00 0.00 0.00 49 1004.8
20260504231539 75 220 4.0 13.0 0.00 0.00 0.00 47 1005.0
20260504230028 75 259 2.0 13.0 0.00 0.00 0.00 46 1005.0
20260504224528 76 228 2.0 16.0 0.00 0.00 0.00 46 1005.1
20260504223027 76 225 5.0 14.0 0.00 0.00 0.00 45 1005.2
20260504221525 77 197 4.0 17.0 0.00 0.00 0.00 45 1005.2
20260504220027 78 135 1.0 12.0 0.00 0.00 0.00 46 1005.3
20260504214524 77 256 1.0 8.0 0.00 0.00 0.00 47 1005.4
20260504213021 77 225 3.0 16.0 0.00 0.00 0.00 47 1005.5
20260504211517 77 236 0.0 2.0 0.00 0.00 0.00 49 1005.9
20260504210016 78 240 0.0 9.0 0.00 0.00 0.00 47 1006.0
20260504204516 78 219 0.0 8.0 0.00 0.00 0.00 47 1006.2
20260504203021 78 260 2.0 9.0 0.00 0.00 0.00 47 1006.3
20260504201509 76 198 3.0 10.0 0.00 0.00 0.00 50 1006.5
20260504200007 76 238 0.0 10.0 0.00 0.00 0.00 50 1006.8
20260504194508 76 262 4.0 12.0 0.00 0.00 0.00 49 1007.0
20260504193006 76 349 2.0 12.0 0.00 0.00 0.00 51 1007.3
20260504191601 74 226 3.0 8.0 0.00 0.00 0.00 53 1007.5
20260504190125 74 158 2.0 9.0 0.00 0.00 0.00 55 1007.8
20260504184557 71 247 3.0 12.0 0.00 0.00 0.00 58 1007.9
20260504183053 71 252 3.0 14.0 0.00 0.00 0.00 57 1008.0
20260504181557 71 278 3.0 10.0 0.00 0.00 0.00 58 1007.7
20260504180137 71 255 1.0 12.0 0.00 0.00 0.00 59 1007.5
20260504174550 70 252 3.0 13.0 0.00 0.00 0.00 59 1007.6
20260504173058 69 92 3.0 14.0 0.00 0.00 0.00 60 1007.6
20260504171546 69 234 0.0 15.0 0.00 0.00 0.00 60 1007.6
20260504140113 61 124 0.0 8.0 0.00 0.00 0.00 68 1008.4
20260504081507 52 241 0.0 6.0 0.00 0.00 0.00 65 1009.9